STARLINK-5258, 54195

Orbit data source: Space-Track

STARLINK-5258, 54195 is a payload satellite owned by SpaceX/Seattle (US) in LEO that was launched on Fri, 28 Oct 2022 UTC via an FALCON 9 launch vehicle from the Air Force Western Test Range (AFWTR). Payload-class satellites include a variety of spacecraft equipped with specific instruments for various scientific and technological missions. These include communications satellites like Starlink; space stations such as the ISS; scientific satellites like the Hubble; Earth observation satellites from companies like Planet Labs, Umbra, and HawkEye 360; GPS; miniature CubeSats for education and research; and military/defense satellites.

Loading next visibility...
Identifier
54195, 2022-141AQ
Orbit
LEO
Country
Flag of USUS
Related business
Manufacturer
SpaceX/Seattle
Mission
Operational Commercial Communications
Bus & Motor
STARLINK, Unknown motor
Mass
305 kg wet, ~290 kg dry
Launch date (UTC)
2022-10-28 (4 years ago)
Launch vehicle
FALCON 9
Launch site
Air Force Western Test Range (AFWTR)
Object type
Payload
Rocket body
Debris
Shape & HBR
Box + 1 Pan, 10.1 m
Radar Cross Section
13.562 m², Large (>1 m²)

Expand to show TLE details & history
Last TLE update: 2 days ago

TLE from 2 days ago
0 STARLINK-5258
1 54195U 22141AQ  26171.40751441  .00010105  00000-0  65310-3 0  9992
2 54195  53.1597 252.9658 0001201 120.7094 239.4016 15.08782404201502
Epoch: 2026-06-20T09:46Z
TLE epoch observation values (Epoch: 2026-06-20T09:46:49.245Z)
Latitude
0.00001°
Longitude
-162.36195°
Altitude
541.234 km
Speed
7.593 km/s
True Right ascension
16h 51m 51s
True Declination
0° 00' 00"
Sunlit
Object was in full shadow at epoch
Visualization orbit readout
Latitude
Unknown
Longitude
Unknown
Altitude
Unknown
Speed
Unknown
Apparent Right ascension
Unknown
Apparent Declination
Unknown
Sunlit
N/A
Visualization observer readout
Local Sidereal Time
21:34:03
Azimuth
Unknown
Elevation
Unknown
Doppler factor
Unknown
Orbital elements
Apogee altitude
541.004 km
Perigee altitude
539.343 km
Semi-major axis
6,918.311 km
Eccentricity
0.00012
Inclination
53.1597°
RAAN
252.9658°
Arg. of periapsis
120.7094°
True anomaly
239.38975°
Mean anomaly
239.4016°
Eccentric anomaly
239.39568°
Mean motion
3.77175 °/min
Orbital period
95.45 mins
BSTAR
0.0006531
Loading maneuver chart data...
Computing Atmospheric mass density...
Loading historical data...
Loading historical data...
Loading historical data...
Loading historical data...
Loading historical data...
Loading historical data...
Loading historical data...

Documentation

Showing up to 5 results
|